Weather History for Sigonella, Italy

Change the Weather History Date:

Tuesday, March 26, 2013

  Actual Average Record
Temperature  
Mean Temperature 58 °F -  
Max Temperature 66 °F 68 °F 78 °F (2005)
Min Temperature 50 °F 46 °F 39 °F (2009)
Degree Days  
Heating Degree Days 7    
Growing Degree Days 8 (Base 50)    
Moisture  
Dew Point 49 °F    
Average Humidity 71    
Maximum Humidity 94    
Minimum Humidity 41    
Precipitation  
Precipitation 0.00 in 0.05 in - ()
Sea Level Pressure  
Sea Level Pressure 29.67 in    
Wind  
Wind Speed 15 mph ()    
Max Wind Speed 28 mph    
Max Gust Speed 36 mph    
Visibility 6.9 miles    
Events      
Averages and records for this station are not official NWS values.
T = Trace of Precipitation, MM = Missing Value Source: Averaged Metar Reports

Daily Weather History Graph

Daily Weather History Graph

Search for Another Location

Airport:

Trip Planner

Search our weather history database for the weather conditions in past years. The results will help you decide how hot, cold, wet, or windy it might be!

Date:

Astronomy

Mar. 26, 2013 Rise Set
Actual Time 5:54 AM CET 6:17 PM CET
Civil Twilight 5:28 AM CET 6:43 PM CET
Nautical Twilight 4:58 AM CET 7:14 PM CET
Astronomical Twilight 4:26 AM CET 7:45 PM CET
Moon 5:35 PM CET (3/26) 5:00 AM CET (3/26)
Length of Visible Light 13h 15m
Length of Day
12h 22m
Waxing Gibbous, 99% of the Moon is Illuminated
Mar 26
Waxing Gibbous
Mar 27
Full
Apr 3
Last Quarter
Apr 10
New
Apr 18
First Quarter

Hourly Weather History & Observations

Time (CET) Temp. Dew Point Humidity Pressure Visibility Wind Dir Wind Speed Gust Speed Precip Events Conditions
12:55 AM 55.4 °F 46.4 °F 72% 29.65 in 6.2 mi West 18.4 mph - N/A   Partly Cloudy
1:00 AM 56 °F 47 °F 63% 29.65 in 12 mi West 18.4 mph - -   Partly Cloudy
1:55 AM 53.6 °F 46.4 °F 77% 29.65 in 6.2 mi West 21.9 mph - N/A   Partly Cloudy
2:55 AM 53.6 °F 44.6 °F 72% 29.65 in 6.2 mi West 16.1 mph - N/A   Partly Cloudy
3:55 AM 51.8 °F 44.6 °F 76% 29.65 in 6.2 mi West 10.4 mph - N/A   Partly Cloudy
4:00 AM 53 °F 45 °F 65% 29.67 in 12 mi West 10.4 mph - -   Scattered Clouds
4:55 AM 51.8 °F 46.4 °F 82% 29.65 in 6.2 mi West 17.3 mph - N/A   Partly Cloudy
5:55 AM 51.8 °F 46.4 °F 82% 29.68 in 6.2 mi West 12.7 mph - N/A   Partly Cloudy
6:55 AM 53.6 °F 48.2 °F 82% 29.68 in 6.2 mi West 12.7 mph - N/A   Partly Cloudy
7:00 AM 53 °F 49 °F 80% 29.70 in 12 mi West 12.7 mph - -   Scattered Clouds
7:55 AM 57.2 °F 50.0 °F 77% 29.71 in 6.2 mi West 17.3 mph - N/A   Scattered Clouds
8:55 AM 60.8 °F 50.0 °F 68% 29.71 in 6.2 mi West 15.0 mph - N/A   Partly Cloudy
9:55 AM 62.6 °F 44.6 °F 52% 29.68 in 6.2 mi West 18.4 mph - N/A   Mostly Cloudy
10:00 AM 63 °F 45 °F 41% 29.70 in 9 mi West 18.4 mph - -   Partly Cloudy
10:55 AM 62.6 °F 44.6 °F 52% 29.68 in 6.2 mi West 18.4 mph - N/A   Mostly Cloudy
11:55 AM 64.4 °F 46.4 °F 52% 29.68 in 6.2 mi WNW 17.3 mph - N/A   Mostly Cloudy
12:55 PM 62.6 °F 53.6 °F 72% 29.68 in 6.2 mi West 19.6 mph - N/A   Mostly Cloudy
1:00 PM 62 °F 53 °F 65% 29.69 in 6 mi West 19.6 mph - -   Partly Cloudy
1:55 PM 62.6 °F 48.2 °F 59% 29.65 in 6.2 mi West 26.5 mph - N/A   Mostly Cloudy
2:55 PM 62.6 °F 48.2 °F 59% 29.65 in 6.2 mi West 24.2 mph 35.7 mph N/A   Mostly Cloudy
3:55 PM 62.6 °F 48.2 °F 59% 29.65 in 6.2 mi West 27.6 mph - N/A   Mostly Cloudy
4:00 PM 62 °F 48 °F 51% 29.65 in 7 mi West 27.6 mph - -   Partly Cloudy
4:55 PM 62.6 °F 50.0 °F 63% 29.62 in 6.2 mi West 24.2 mph - N/A   Mostly Cloudy
5:55 PM 60.8 °F 50.0 °F 68% 29.62 in 6.2 mi West 20.7 mph - N/A   Mostly Cloudy
6:55 PM 59.0 °F 53.6 °F 82% 29.65 in 6.2 mi West 15.0 mph - N/A   Scattered Clouds
7:00 PM 59 °F 53 °F 74% 29.66 in 7 mi West 15.0 mph - -   Partly Cloudy
7:55 PM 59.0 °F 53.6 °F 82% 29.65 in 6.2 mi West 13.8 mph - N/A   Scattered Clouds
8:55 PM 57.2 °F 55.4 °F 94% 29.68 in 6.2 mi West 6.9 mph - N/A   Scattered Clouds
9:55 PM 57.2 °F 53.6 °F 88% 29.68 in 6.2 mi West 5.8 mph - N/A   Scattered Clouds
10:00 PM 57 °F 54 °F 88% 29.69 in 6 mi West 5.8 mph - -   Scattered Clouds
10:55 PM 57.2 °F 55.4 °F 94% 29.68 in 6.2 mi West 16.1 mph - N/A   Scattered Clouds
11:55 PM 57.2 °F 55.4 °F 94% 29.68 in 6.2 mi NNW 3.5 mph - N/A   Scattered Clouds